Weather in Krasnyy Partizan

Russia / Altai Krai     51°22′33″N   83°34′51″E
temp.,
°C
wind,
m/s
gust,
m/s
humid.,
%
clouds,
%
prec.,
mm/h
press.,
hPa
HPBL,
m
12 may, wed
wed1201:00+7s226644 0.0 101514
04:00+7sse2260100 0.0 101415
07:00+7s116336 0.0 101526
10:00+12w225137 0.0 1014661
13:00+14nw55486 0.2 10141311
16:00+16nnw673973 0.2 10132270
19:00+15n3648100 0.2 1015569
22:00+9w2479100 0.8 101890
13 may, thu
thu1301:00+7s338780 1.4 101858
04:00+6se22865 0.0 101717
07:00+7se228290 0.0 101855
10:00+13sw235797 0.0 1016581
13:00+13wnw5658100 0.6 10151254
16:00+13w4759100 0.1 10141250
19:00+10w698185 0.5 1015645
22:00+8wsw2693100 3.8 1016336
14 may, fri
fri1401:00+8wsw2593100 5.0 1015332
04:00+7wsw2495100 0.6 1015285
07:00+7wsw1297100 1.2 1017234
10:00+8nnw2491100 1.3 1018568
13:00+8nnw369497 2.1 1021447
16:00+12n255877 0.4 10211568
19:00+13ne1358100 0.6 1021389
22:00+8ne1172100 0.1 102411
15 may, sat
sat1501:00+6e117418 0.1 102610
04:00+5se218153 0.0 102610
07:00+6se1180100 0.0 102735
10:00+12e115269 0.0 1027541
13:00+15n23418 0.0 10251173
16:00+17nnw23441 0.0 10241349
19:00+17nw225414 0.0 1024526
22:00+11e00694 0.0 102410
16 may, sun
sun1601:00+9se22785 0.0 102413
04:00+8se228056 0.0 102314
07:00+10se22755 0.0 102235
10:00+17s235139 0.0 1020376
13:00+21w454137 0.0 10191378
16:00+21w554599 0.0 10171264
19:00+19wsw48575 0.0 1016462
22:00+14sse337023 0.0 101525